Location: Delia
(51.6321°N, 112.3740°W)
Time: 20:02:15
(UTC+00:00)

Envisat - Pass Details

Date: 05 December 2021
Orbit: 764 x 766 km, 98.2° (Epoch: 26 January)

Event Time Altitude Azimuth Distance (km) Brightness Sun altitude
Rises 13:13:04 0° 11° (N) 3,248 6.2 -18.5°
Reaches altitude 10° 13:15:25 10° 7° (N) 2,317 5.4 -18.1°
Maximum altitude 13:20:24 56° 291° (WNW) 915 3.0 -17.4°
Drops below altitude 10° 13:25:21 10° 214° (SW) 2,300 5.3 -16.6°
Sets 13:27:40 0° 211° (SSW) 3,222 6.1 -16.3°
